"timestamp";"minute";"mean_h";"std_h";"mean_l";"std_l"
2019-10-31T23:00:56;1;-114.96033;2.4627092;-115.05642;2.4808917
2019-10-31T23:05:56;1;-115.170685;2.5270147;-115.09926;2.5314217
2019-10-31T23:10:56;1;-115.342575;2.5903883;-115.50657;2.616445
2019-10-31T23:15:56;1;-115.34329;2.4220388;-115.50414;2.396294
2019-10-31T23:20:56;1;-115.245575;2.5414083;-115.20176;2.5952442
2019-10-31T23:25:56;1;-115.09526;2.4815786;-115.132484;2.4591684
2019-10-31T23:30:56;1;-114.93364;2.4373243;-114.87518;2.3952744
2019-10-31T23:35:56;1;-114.99693;2.4115486;-114.901245;2.4013038
2019-10-31T23:40:56;1;-114.79016;2.4700303;-114.778305;2.4504688
2019-10-31T23:45:56;1;-114.981674;2.4856575;-115.04748;2.5453067
2019-10-31T23:50:56;1;-114.90149;2.3938653;-114.92612;2.351639
2019-10-31T23:55:56;1;-115.081535;2.4015994;-115.02833;2.4364543
2019-11-01T00:00:56;1;-114.84425;2.4334242;-114.71687;2.4963992
2019-11-01T00:05:56;1;-115.0052;2.4216754;-114.90056;2.477837
2019-11-01T00:10:56;1;-114.73041;2.4718473;-114.653244;2.6235206
2019-11-01T00:15:56;1;-114.702965;2.4842174;-114.77854;2.445465
2019-11-01T00:20:56;1;-114.834274;2.5593412;-114.84045;2.5902598
2019-11-01T00:25:56;1;-114.910324;2.4811845;-114.873695;2.4773314
2019-11-01T00:30:56;1;-114.73396;2.382785;-114.66622;2.3564372
2019-11-01T00:35:56;1;-114.7784;2.4942443;-114.84817;2.5215652
2019-11-01T00:40:56;1;-114.88263;2.4513898;-114.936424;2.3993802
2019-11-01T00:45:56;1;-115.094864;2.3670938;-115.16198;2.377341
2019-11-01T00:50:56;1;-114.95437;2.3908703;-115.0034;2.325097
2019-11-01T00:55:56;1;-114.90709;2.4572613;-114.91629;2.481854
2019-11-01T01:00:56;1;-114.84851;2.3968465;-114.83087;2.4229803
2019-11-01T01:05:56;1;-114.94055;2.4250607;-115.029305;2.401469
2019-11-01T01:10:56;1;-114.86397;2.5007412;-114.74869;2.5602827
2019-11-01T01:15:56;1;-114.900024;2.4715903;-114.86228;2.5004106
2019-11-01T01:20:56;1;-114.74499;2.5005186;-114.803986;2.4243305
2019-11-01T01:25:56;1;-114.76259;2.4654377;-114.777115;2.4183817
2019-11-01T01:30:56;1;-114.98713;2.3855562;-114.93328;2.4896245
2019-11-01T01:35:56;1;-114.996635;2.4871008;-114.83124;2.491498
2019-11-01T01:40:56;1;-114.82164;2.5471923;-114.87754;2.5177555
2019-11-01T01:45:56;1;-115.01351;2.4357493;-115.067604;2.3516746
2019-11-01T01:50:56;1;-114.89879;2.5198634;-114.736015;2.5727718
2019-11-01T01:55:56;1;-114.89582;2.5264213;-114.79824;2.5803707
2019-11-01T02:00:56;1;-114.81589;2.355728;-114.75183;2.4034216
2019-11-01T02:05:56;1;-114.95064;2.5396078;-114.95909;2.6095262
2019-11-01T02:10:56;1;-115.03378;2.410995;-115.13655;2.3951097
2019-11-01T02:15:56;1;-115.07221;2.4509442;-115.12236;2.4882271
2019-11-01T02:20:56;1;-115.01012;2.4578676;-115.17467;2.3858724
2019-11-01T02:25:56;1;-115.5474;2.6126757;-116.14908;2.5094578
2019-11-01T02:30:56;1;-116.26946;2.4691942;-116.20451;2.519084
2019-11-01T02:35:56;1;-116.24601;2.5542324;-116.28316;2.5495882
2019-11-01T02:40:56;1;-116.63551;2.515087;-116.64904;2.5141003
2019-11-01T02:45:56;1;-116.48687;2.5679023;-116.50647;2.5365436
2019-11-01T02:50:56;1;-116.72278;2.520628;-116.71046;2.4408665
2019-11-01T02:55:56;1;-116.2261;2.4670815;-116.381226;2.3888059
2019-11-01T03:00:56;1;-116.36656;2.552352;-116.39246;2.5872605
2019-11-01T03:05:56;1;-115.70847;2.4586523;-115.894806;2.4618084
2019-11-01T03:10:56;1;-116.18654;2.496906;-116.3336;2.515519
2019-11-01T03:15:56;1;-115.794075;2.5052552;-115.75978;2.4359598
2019-11-01T03:20:56;1;-115.69595;2.4633527;-115.58159;2.5736074
2019-11-01T03:25:56;1;-115.91335;2.532669;-116.12854;2.5574205
2019-11-01T03:30:56;1;-116.053474;2.5238063;-116.02143;2.5016584
2019-11-01T03:35:56;1;-115.80412;2.458757;-115.8658;2.4641502
2019-11-01T03:40:56;1;-116.09868;2.483616;-115.92972;2.5351968
2019-11-01T03:45:56;1;-115.81457;2.4293559;-115.70307;2.5048532
2019-11-01T03:50:56;1;-116.05059;2.4605887;-116.15885;2.4029543
2019-11-01T03:55:56;1;-115.83584;2.357537;-115.70849;2.4321613
2019-11-01T04:00:56;1;-113.41841;2.7543738;-111.94027;3.0458379
2019-11-01T04:05:56;1;-101.40345;9.121989;-99.46921;9.042226
2019-11-01T04:10:56;1;-115.15285;2.5444043;-114.79773;2.6318197
2019-11-01T04:15:56;1;-103.94049;8.064171;-115.9075;2.4547489
2019-11-01T04:20:56;1;-115.69897;2.4875426;-115.684326;2.449308
2019-11-01T04:25:56;1;-115.780846;2.4559047;-115.755005;2.4598296
2019-11-01T04:30:56;1;-116.39704;2.4339426;-116.50545;2.3969212
2019-11-01T04:35:56;1;-103.03985;7.739227;-100.10653;9.632647
2019-11-01T04:40:56;1;-115.70922;2.454643;-115.82664;2.385843
2019-11-01T04:45:56;1;-91.40583;13.7059145;-88.368004;11.839095
2019-11-01T04:50:56;1;-115.64804;2.4851282;-115.71099;2.4901273
2019-11-01T04:55:56;1;-116.054085;2.4288895;-116.12225;2.3528407
2019-11-01T05:00:56;1;-116.15083;2.5000825;-116.13379;2.4555638
2019-11-01T05:05:56;1;-116.22956;2.4187164;-116.04804;2.4372504
2019-11-01T05:10:56;1;-116.02888;2.401297;-116.028854;2.346972
2019-11-01T05:15:56;1;-114.99303;2.531193;-114.64988;2.561942
2019-11-01T05:20:56;1;-117.38807;2.5523403;-117.36463;2.5747359
2019-11-01T05:25:56;1;-117.28786;2.4492788;-117.34414;2.470324
2019-11-01T05:30:56;1;-117.27136;2.4200542;-117.123085;2.4745173
2019-11-01T05:35:56;1;-117.0158;2.4583232;-116.75173;2.506441
2019-11-01T05:40:56;1;-117.24523;2.3865907;-117.18501;2.3957367
2019-11-01T05:45:56;1;-117.30599;2.549221;-117.416084;2.5980902
2019-11-01T05:50:56;1;-115.39279;3.6052668;-118.04302;2.436139
2019-11-01T05:55:56;1;-96.96017;12.417997;-117.886375;2.497469
2019-11-01T06:00:56;1;-93.46145;13.628521;-117.96455;2.5040033
2019-11-01T06:05:56;1;-94.752014;12.888065;-117.63389;2.6028044
2019-11-01T06:10:56;1;-93.06513;14.1205635;-118.02388;2.451731
2019-11-01T06:15:56;1;-101.03957;9.379958;-117.625275;2.5788455
2019-11-01T06:20:56;1;-96.73224;12.204352;-117.83147;2.5147705
2019-11-01T06:25:56;1;-92.842804;13.797291;-117.44038;2.4088526
2019-11-01T06:30:56;1;-93.322525;14.319699;-117.85776;2.5681007
2019-11-01T06:35:56;1;-98.04366;11.76721;-118.14812;2.3846662
2019-11-01T06:40:56;1;-100.73558;9.97505;-117.630035;2.4373038
2019-11-01T06:45:56;1;-96.12478;12.152658;-117.26677;2.5336466
2019-11-01T06:50:56;1;-92.32006;13.696378;-115.85757;2.50457
2019-11-01T06:55:56;1;-97.01559;10.528857;-114.65621;2.574616
2019-11-01T07:00:56;1;-99.57685;9.262412;-114.441345;2.6069505
2019-11-01T07:05:56;1;-97.742134;9.4783;-113.012985;2.6542685
2019-11-01T07:10:56;1;-97.22794;9.755725;-113.29858;2.5984263
2019-11-01T07:15:56;1;-98.01445;9.735911;-113.89683;2.7571416
2019-11-01T07:20:56;1;-94.35492;12.010519;-113.07024;3.6209908
2019-11-01T07:25:56;1;-102.322;9.234157;-117.36896;2.5481963
2019-11-01T07:30:56;1;-97.94227;11.589469;-117.90675;2.509867
2019-11-01T07:35:56;1;-99.0296;11.005014;-117.979774;2.314695
2019-11-01T07:40:56;1;-98.00862;12.036009;-118.69612;2.45925
2019-11-01T07:45:56;1;-100.38575;10.756579;-118.69998;2.4976304
2019-11-01T07:50:56;1;-103.306656;9.446926;-118.9285;2.397828
2019-11-01T07:55:56;1;-98.62614;11.396849;-118.569115;2.4215107
2019-11-01T08:00:56;1;-101.53429;10.046542;-118.40375;2.386544
2019-11-01T08:05:56;1;-97.13086;12.398731;-119.07378;2.4861465
2019-11-01T08:10:56;1;-101.9704;9.731788;-118.119965;2.4304857
2019-11-01T08:15:56;1;-100.34053;10.839786;-118.52812;2.5544803
2019-11-01T08:20:56;1;-103.927025;8.913441;-118.52826;2.5078938
2019-11-01T08:25:56;1;-98.45593;11.574553;-118.37255;2.454436
2019-11-01T08:30:56;1;-100.32966;10.825146;-118.64339;2.4494874
2019-11-01T08:35:56;1;-100.219505;10.848157;-118.59684;2.4732254
2019-11-01T08:40:56;1;-103.2718;8.888161;-117.75585;2.6045692
2019-11-01T08:45:56;1;-103.132866;8.9823885;-118.07664;2.4735103
2019-11-01T08:50:56;1;-101.696106;9.794181;-118.21027;2.4134033
2019-11-01T08:55:56;1;-102.12061;9.60088;-118.12806;2.5543442
2019-11-01T09:00:56;1;-104.07583;8.596529;-118.007164;2.369423
2019-11-01T09:05:56;1;-102.43746;9.433432;-118.07271;2.433889
2019-11-01T09:10:56;1;-100.99146;9.848987;-117.49337;2.511064
2019-11-01T09:15:56;1;-102.596016;9.276239;-118.04902;2.3986704
2019-11-01T09:20:56;1;-101.419586;9.9338455;-117.94976;2.5657952
2019-11-01T09:25:56;1;-102.45125;9.17161;-117.376205;2.4322367
2019-11-01T09:30:56;1;-99.81123;10.828374;-118.39154;2.4345431
2019-11-01T09:35:56;1;-101.57563;9.662982;-117.93454;2.3903487
2019-11-01T09:40:56;1;-103.94174;8.51126;-117.5519;2.4426646
2019-11-01T09:45:56;1;-102.04261;9.9525795;-118.48583;2.4156206
2019-11-01T09:50:56;1;-102.897446;9.380302;-118.2153;2.4990747
2019-11-01T09:55:56;1;-100.65651;10.321107;-118.47648;2.3972664
2019-11-01T10:00:56;1;-103.19974;9.304705;-118.555695;2.499982
2019-11-01T10:05:56;1;-101.24507;9.897469;-117.903755;2.5090806
2019-11-01T10:10:56;1;-104.11869;8.519225;-117.50722;2.643944
2019-11-01T10:15:56;1;-103.98345;8.433587;-117.57708;2.3239336
2019-11-01T10:20:56;1;-103.825775;8.575168;-117.6672;2.304045
2019-11-01T10:25:56;1;-102.57505;9.056985;-117.24705;2.4704957
2019-11-01T10:30:56;1;-101.85364;9.190766;-117.052895;2.4669702
2019-11-01T10:35:56;1;-104.00369;8.728044;-117.794685;2.529469
2019-11-01T10:40:56;1;-104.22207;8.519566;-117.88385;2.416554
2019-11-01T10:45:56;1;-101.793365;9.237609;-116.97638;2.4524014
2019-11-01T10:50:56;1;-100.3609;10.053423;-117.62087;2.3830643
2019-11-01T10:55:56;1;-102.78012;9.027028;-117.38791;2.4989467
2019-11-01T11:00:56;1;-101.3385;9.688378;-117.28515;2.4531991
2019-11-01T11:05:56;1;-99.85255;10.242836;-117.393425;2.5721183
2019-11-01T11:10:56;1;-101.01416;9.897114;-117.815025;2.4267087
2019-11-01T11:15:56;1;-104.52664;8.072577;-117.200615;2.4478076
2019-11-01T11:20:56;1;-100.60345;9.99806;-117.167625;2.4047458
2019-11-01T11:25:56;1;-101.477005;9.818092;-117.77756;2.4151926
2019-11-01T11:30:56;1;-102.91846;9.09965;-117.52337;2.5345085
2019-11-01T11:35:56;1;-102.85489;8.977667;-117.61169;2.406821
2019-11-01T11:40:56;1;-104.71167;8.247066;-117.54404;2.3272693
2019-11-01T11:45:56;1;-104.76843;8.054612;-117.32665;2.3988519
2019-11-01T11:50:56;1;-105.01781;8.083207;-117.354256;2.484935
2019-11-01T11:55:56;1;-99.683464;10.773564;-118.13575;2.2561362
2019-11-01T12:00:56;1;-103.029335;8.840236;-117.27274;2.4951136
2019-11-01T12:05:56;1;-103.12969;9.064924;-117.73759;2.5055962
2019-11-01T12:10:56;1;-100.42413;10.376998;-117.826355;2.5108278
2019-11-01T12:15:56;1;-101.13224;10.06081;-117.85668;2.3212526
2019-11-01T12:20:56;1;-101.20472;9.940106;-117.86858;2.615469
2019-11-01T12:25:56;1;-103.63748;8.660044;-117.21049;2.4148262
2019-11-01T12:30:56;1;-106.257935;7.4301906;-117.63707;2.5477471
2019-11-01T12:35:56;1;-99.60264;10.681812;-117.65355;2.3680701
2019-11-01T12:40:56;1;-101.69884;9.784857;-117.752106;2.491594
2019-11-01T12:45:56;1;-100.110954;10.151175;-117.65483;2.471439
2019-11-01T12:50:56;1;-102.994095;9.081001;-117.793495;2.3508668
2019-11-01T12:55:56;1;-104.30258;8.811227;-118.11112;2.4889047
2019-11-01T13:00:56;1;-100.72394;10.256378;-117.91687;2.3796542
2019-11-01T13:05:56;1;-100.40302;10.696009;-118.26656;2.4851747
2019-11-01T13:10:56;1;-98.768616;11.561809;-118.43939;2.4522479
2019-11-01T13:15:56;1;-99.25389;11.079329;-117.7541;2.3915648
2019-11-01T13:20:56;1;-98.73932;10.697715;-117.12694;2.3464153
2019-11-01T13:25:56;1;-104.95566;8.108241;-117.210655;2.5561788
2019-11-01T13:30:56;1;-98.48399;11.409789;-117.71324;2.369064
2019-11-01T13:35:56;1;-101.26477;10.081404;-118.033516;2.4059422
2019-11-01T13:40:56;1;-99.20837;10.982577;-117.75231;2.501969
2019-11-01T13:45:56;1;-101.33242;9.993321;-117.879616;2.535249
2019-11-01T13:50:56;1;-97.10351;11.812323;-117.80778;2.5833092
2019-11-01T13:55:56;1;-99.36771;10.885931;-117.9352;2.608721
2019-11-01T14:00:56;1;-98.051445;11.232706;-116.70771;2.5979617
2019-11-01T14:05:56;1;-97.135445;11.30178;-116.41488;2.5923347
2019-11-01T14:10:56;1;-96.54606;12.24643;-117.59305;2.4891572
2019-11-01T14:15:56;1;-101.05902;9.717848;-116.98749;2.5656712
2019-11-01T14:20:56;1;-102.24011;9.011634;-117.28477;2.515417
2019-11-01T14:25:56;1;-99.659035;10.706441;-117.78012;2.3814213
2019-11-01T14:30:56;1;-98.676;10.98081;-117.58414;2.5224667
2019-11-01T14:35:56;1;-100.14134;10.23073;-117.67451;2.5604868
2019-11-01T14:40:56;1;-99.60098;10.753512;-117.53512;2.6975489
2019-11-01T14:45:56;1;-97.18947;12.077654;-118.10487;2.5966802
2019-11-01T14:50:56;1;-98.016945;11.479321;-117.47275;2.4094622
2019-11-01T14:55:56;1;-95.53826;12.832772;-118.39623;2.440878
2019-11-01T15:00:56;1;-98.428665;11.539961;-118.05037;2.527543
2019-11-01T15:05:56;1;-100.122665;10.566251;-117.21099;2.7152355
2019-11-01T15:10:56;1;-95.59793;12.4411125;-115.6072;2.7671394
2019-11-01T15:15:56;1;-99.6598;10.422743;-117.54813;2.2909963
2019-11-01T15:20:56;1;-92.14302;14.52962;-118.28749;2.4974945
2019-11-01T15:25:56;1;-98.49154;11.324329;-117.79129;2.4938142
2019-11-01T15:30:56;1;-101.36451;9.609392;-117.23353;2.5151289
2019-11-01T15:35:56;1;-97.77123;11.698199;-118.37596;2.4826665
2019-11-01T15:40:56;1;-99.46173;10.897814;-117.706726;2.4639864
2019-11-01T15:45:56;1;-98.55251;11.393061;-118.19644;2.5260572
2019-11-01T15:50:56;1;-91.283455;14.64379;-118.18337;2.5439377
2019-11-01T15:55:56;1;-97.3906;11.421704;-117.24198;2.7074063
2019-11-01T16:00:56;1;-96.75279;11.636587;-116.44996;2.4781718
2019-11-01T16:05:56;1;-98.80057;10.507076;-116.51293;2.3617706
2019-11-01T16:10:56;1;-88.75795;15.12802;-116.455215;2.359609
2019-11-01T16:15:56;1;-101.011375;9.28237;-116.68175;2.4087064
2019-11-01T16:20:56;1;-108.226204;5.92546;-115.86782;2.4207528
2019-11-01T16:25:56;1;-114.43023;3.321254;-116.37197;2.5574043
2019-11-01T16:30:56;1;-114.04222;3.6067512;-116.89904;2.3244
2019-11-01T16:35:56;1;-116.3676;2.5369065;-116.800644;2.4925697
2019-11-01T16:40:56;1;-108.1489;6.2477083;-116.73215;2.5364103
2019-11-01T16:45:56;1;-108.08554;6.580551;-117.06625;2.3641798
2019-11-01T16:50:56;1;-105.454544;7.486157;-116.70234;2.48377
2019-11-01T16:55:56;1;-109.86217;5.346868;-116.49151;2.44839
2019-11-01T17:00:56;1;-113.399055;3.6337836;-115.704056;2.4804187
2019-11-01T17:05:56;1;-115.713425;2.4493785;-115.9085;2.4325593
2019-11-01T17:10:56;1;-115.740364;2.432995;-115.92876;2.4448166
2019-11-01T17:15:56;1;-115.9257;2.4229653;-116.05781;2.4329054
2019-11-01T17:20:56;1;-115.65237;2.3623536;-115.916916;2.336362
2019-11-01T17:25:56;1;-115.3393;2.5238135;-115.66577;2.4491203
2019-11-01T17:30:56;1;-115.32425;2.441296;-115.51871;2.4350996
2019-11-01T17:35:56;1;-115.538605;2.5153964;-115.40972;2.46616
2019-11-01T17:40:56;1;-115.77094;2.4399023;-115.747925;2.4131527
2019-11-01T17:45:56;1;-115.713974;2.3811927;-115.69908;2.3850863
2019-11-01T17:50:56;1;-115.0427;2.4461794;-114.86597;2.5047855
2019-11-01T17:55:56;1;-114.849525;2.4185448;-114.89688;2.476418
2019-11-01T18:00:56;1;-114.91179;2.5052707;-115.116066;2.5064502
2019-11-01T18:05:56;1;-115.52326;2.4072676;-115.62897;2.4337807
2019-11-01T18:10:56;1;-114.91068;2.4728642;-114.95376;2.5159445
2019-11-01T18:15:56;1;-116.474335;2.466639;-116.31217;2.4823976
2019-11-01T18:20:56;1;-115.53572;2.4410124;-115.48008;2.4672241
2019-11-01T18:25:56;1;-115.41823;2.39137;-115.48431;2.4287817
2019-11-01T18:30:56;1;-115.4794;2.4383354;-115.54342;2.415619
2019-11-01T18:35:56;1;-114.907265;2.4651315;-114.87221;2.5641334
2019-11-01T18:40:56;1;-115.18501;2.4888449;-115.06581;2.5135753
2019-11-01T18:45:56;1;-115.84934;2.4633298;-115.63806;2.5844176
2019-11-01T18:50:56;1;-115.81793;2.4645884;-116.12933;2.5060549
2019-11-01T18:55:56;1;-114.604614;2.5273278;-114.701996;2.5338936
2019-11-01T19:00:56;1;-114.48456;2.6870782;-115.18275;2.5815578
2019-11-01T19:05:56;1;-114.76611;2.6930094;-115.304855;2.439188
2019-11-01T19:10:56;1;-114.77956;2.6987324;-115.3855;2.4974911
2019-11-01T19:15:56;1;-114.06745;2.9574208;-115.31628;2.4442909
2019-11-01T19:20:56;1;-112.303734;3.8166523;-115.252205;2.618531
2019-11-01T19:25:56;1;-110.887474;4.170474;-114.77734;2.5044062
2019-11-01T19:30:56;1;-110.07779;4.865603;-115.41867;2.467011
2019-11-01T19:35:56;1;-111.56729;4.263962;-115.54181;2.5337868
2019-11-01T19:40:56;1;-110.451996;4.2848835;-114.797516;2.3953621
2019-11-01T19:45:56;1;-107.28521;5.6993227;-114.67739;2.3042145
2019-11-01T19:50:56;1;-107.95074;5.5110135;-114.8514;2.4234753
2019-11-01T19:55:56;1;-109.517914;4.7770886;-114.72091;2.4875817
2019-11-01T20:00:56;1;-110.69138;4.242592;-114.6376;2.4854703
2019-11-01T20:05:56;1;-108.19833;5.185774;-114.546814;2.4473164
2019-11-01T20:10:56;1;-107.21757;5.770333;-114.444664;2.5878015
2019-11-01T20:15:56;1;-107.539505;5.6279645;-114.91793;2.3476374
2019-11-01T20:20:56;1;-108.37807;5.4056077;-114.75819;2.6102884
2019-11-01T20:25:56;1;-108.42104;5.24785;-114.85244;2.4485917
2019-11-01T20:30:56;1;-105.15738;6.8367486;-114.99141;2.3802645
2019-11-01T20:35:56;1;-112.238716;3.4904392;-114.64047;2.4234087
2019-11-01T20:40:56;1;-114.67105;2.4710326;-114.70703;2.5014098
2019-11-01T20:45:56;1;-114.52881;2.4998136;-114.74915;2.4571552
2019-11-01T20:50:56;1;-114.38359;2.5774438;-115.016235;2.373932
2019-11-01T20:55:56;1;-114.57653;2.4197385;-114.67978;2.4962654
2019-11-01T21:00:56;1;-114.7712;2.4641237;-114.654526;2.4341745
2019-11-01T21:05:56;1;-114.66545;2.453247;-114.78036;2.388411
2019-11-01T21:10:56;1;-114.649605;2.440513;-114.74066;2.4277542
2019-11-01T21:15:56;1;-114.59796;2.3480024;-114.571884;2.3789911
2019-11-01T21:20:56;1;-114.558495;2.5697532;-114.815674;2.492436
2019-11-01T21:25:56;1;-114.719154;2.4901395;-114.64594;2.5525522
2019-11-01T21:30:56;1;-113.43639;2.649735;-112.476776;2.8262098
2019-11-01T21:35:56;1;-113.73329;2.567415;-113.255775;2.704852
2019-11-01T21:40:56;1;-114.65181;2.3755124;-114.63103;2.390304
2019-11-01T21:45:56;1;-114.38257;2.4349132;-114.14547;2.485544
2019-11-01T21:50:56;1;-114.23279;2.4377005;-114.23698;2.4013176
2019-11-01T21:55:56;1;-114.121124;2.455546;-113.96086;2.4385285
2019-11-01T22:00:56;1;-114.38574;2.4430327;-114.430275;2.419203
2019-11-01T22:05:56;1;-114.36949;2.3884892;-114.41672;2.2834344
2019-11-01T22:10:56;1;-114.3817;2.3815114;-114.46512;2.3517685
2019-11-01T22:15:56;1;-114.356606;2.4332423;-114.29756;2.4294155
2019-11-01T22:20:56;1;-114.08797;2.4707534;-114.06556;2.5872984
2019-11-01T22:25:56;1;-114.42275;2.4024165;-114.61473;2.435226
2019-11-01T22:30:56;1;-114.40234;2.5413692;-114.43234;2.5016077
2019-11-01T22:35:56;1;-114.36003;2.5368087;-114.41991;2.510086
2019-11-01T22:40:56;1;-114.393974;2.4335642;-114.359535;2.4306176
2019-11-01T22:45:56;1;-114.48934;2.5029387;-114.36765;2.5818648
2019-11-01T22:50:56;1;-114.18245;2.558584;-114.36191;2.5469935
2019-11-01T22:55:56;1;-114.27112;2.4960515;-114.37672;2.5342019
2019-11-01T23:00:56;1;-114.06889;2.5100665;-114.236;2.5143855
2019-11-01T23:05:56;1;-114.479;2.4247818;-114.37209;2.4427924
2019-11-01T23:10:56;1;-114.797264;2.419939;-114.81058;2.3513448
2019-11-01T23:15:56;1;-114.80266;2.4756832;-114.70806;2.4753597
2019-11-01T23:20:56;1;-114.81488;2.390547;-114.77357;2.397417
2019-11-01T23:25:56;1;-114.79976;2.335121;-114.65549;2.3320014
2019-11-01T23:30:56;1;-114.86834;2.5486467;-114.97954;2.4505787
2019-11-01T23:35:56;1;-114.663445;2.4888763;-114.6177;2.496213
2019-11-01T23:40:56;1;-114.33909;2.436341;-114.41693;2.430906
2019-11-01T23:45:56;1;-114.486015;2.383982;-114.65041;2.3819222
2019-11-01T23:50:56;1;-114.27744;2.399822;-114.33227;2.3586235
2019-11-01T23:55:56;1;-114.308685;2.4724236;-114.42791;2.5231147
2019-11-02T00:00:56;1;-114.71564;2.419169;-114.68215;2.51644
2019-11-02T00:05:56;1;-114.37164;2.513322;-114.25983;2.592051
2019-11-02T00:10:56;1;-114.50077;2.4556077;-114.559875;2.424354
2019-11-02T00:15:56;1;-114.24536;2.527692;-114.30022;2.558057
2019-11-02T00:20:56;1;-114.58841;2.4329836;-114.472115;2.4385777
2019-11-02T00:25:56;1;-114.916405;2.5170965;-114.836754;2.5379522
2019-11-02T00:30:56;1;-114.6045;2.4034202;-114.65996;2.458678
2019-11-02T00:35:56;1;-114.758484;2.4023926;-114.722664;2.4290168
2019-11-02T00:40:56;1;-114.63534;2.4711618;-114.61742;2.496488
2019-11-02T00:45:56;1;-114.51614;2.3740427;-114.61722;2.4168787
2019-11-02T00:50:56;1;-114.28047;2.4590998;-114.15173;2.4211228
2019-11-02T00:55:56;1;-114.5676;2.3884382;-114.565445;2.448791
2019-11-02T01:00:56;1;-114.424286;2.4304826;-114.42994;2.429249
2019-11-02T01:05:56;1;-114.76558;2.456763;-114.77161;2.4402435
2019-11-02T01:10:56;1;-114.79999;2.4295428;-115.03587;2.3980932
2019-11-02T01:15:56;1;-115.17037;2.4489918;-115.17112;2.5156128
2019-11-02T01:20:56;1;-115.07666;2.4733055;-115.144554;2.5281377
2019-11-02T01:25:56;1;-115.09996;2.4288394;-115.05431;2.490342
2019-11-02T01:30:56;1;-115.17193;2.4942653;-115.0161;2.4984024
2019-11-02T01:35:56;1;-115.13902;2.503601;-115.36395;2.512564
2019-11-02T01:40:56;1;-114.9088;2.4564922;-114.983574;2.3260624
2019-11-02T01:45:56;1;-115.37524;2.443949;-115.421165;2.4536266
2019-11-02T01:50:56;1;-115.04886;2.4484875;-115.16597;2.500356
2019-11-02T01:55:56;1;-115.36066;2.452403;-115.39936;2.5050178
2019-11-02T02:00:56;1;-114.81663;2.414219;-114.99486;2.3355281
2019-11-02T02:05:56;1;-114.909935;2.4706533;-114.90641;2.519694
2019-11-02T02:10:56;1;-115.11704;2.4221284;-115.1387;2.4242237
2019-11-02T02:15:56;1;-114.787636;2.4438682;-114.793594;2.388269
2019-11-02T02:20:56;1;-114.671165;2.4848843;-114.8624;2.5665348
2019-11-02T02:25:56;1;-114.8803;2.441963;-114.95547;2.3648086
2019-11-02T02:30:56;1;-114.97438;2.3954227;-114.92686;2.4220157
2019-11-02T02:35:56;1;-114.90286;2.3897882;-114.9003;2.457708
2019-11-02T02:40:56;1;-114.78733;2.4670594;-114.84496;2.474123
2019-11-02T02:45:56;1;-114.888466;2.4303336;-114.72952;2.388795
2019-11-02T02:50:56;1;-114.64789;2.4506187;-114.63117;2.4013038
2019-11-02T02:55:56;1;-114.91862;2.414299;-115.049995;2.4590719
2019-11-02T03:00:56;1;-114.82514;2.3453755;-114.912186;2.3743374
2019-11-02T03:05:56;1;-114.73494;2.467868;-114.61827;2.4660792
2019-11-02T03:10:56;1;-114.85607;2.367453;-114.89939;2.3432422
2019-11-02T03:15:56;1;-114.82449;2.5317872;-114.9161;2.5697546
2019-11-02T03:20:56;1;-115.11562;2.5326843;-115.18655;2.524469
2019-11-02T03:25:56;1;-115.35013;2.4559636;-115.38984;2.4724863
2019-11-02T03:30:56;1;-114.7732;2.441342;-114.80446;2.4720469
2019-11-02T03:35:56;1;-115.35188;2.4512026;-115.25679;2.4232767
2019-11-02T03:40:56;1;-115.24046;2.331524;-115.02682;2.277859
2019-11-02T03:45:56;1;-114.87642;2.532915;-114.805115;2.557386
2019-11-02T03:50:56;1;-115.45786;2.516461;-115.348755;2.5216756
2019-11-02T03:55:56;1;-115.3192;2.3660696;-115.43733;2.399568
2019-11-02T04:00:56;1;-115.0853;2.5193167;-114.9763;2.5069242
2019-11-02T04:05:56;1;-115.044624;2.3866787;-115.04204;2.3688574
2019-11-02T04:10:56;1;-115.31429;2.444026;-115.22762;2.452282
2019-11-02T04:15:56;1;-115.41915;2.4171526;-115.43667;2.412391
2019-11-02T04:20:56;1;-115.18305;2.401511;-115.14246;2.302098
2019-11-02T04:25:56;1;-115.39986;2.3830585;-115.63856;2.343527
2019-11-02T04:30:56;1;-115.32382;2.4287574;-115.30525;2.419166
2019-11-02T04:35:56;1;-115.19162;2.4952972;-115.20496;2.4284174
2019-11-02T04:40:56;1;-115.853226;2.4560487;-115.91297;2.4785993
2019-11-02T04:45:56;1;-115.071434;2.4584274;-115.280815;2.3667598
2019-11-02T04:50:56;1;-115.4461;2.4811912;-115.545715;2.49189
2019-11-02T04:55:56;1;-115.537605;2.4660716;-115.59241;2.4989007
2019-11-02T05:00:56;1;-115.83543;2.4204443;-115.94711;2.3739748
2019-11-02T05:05:56;1;-115.8349;2.4566588;-115.807594;2.4105425
2019-11-02T05:10:56;1;-115.853004;2.5012364;-115.80258;2.5139232
2019-11-02T05:15:56;1;-115.68567;2.5193856;-115.82811;2.5157366
2019-11-02T05:20:56;1;-115.73067;2.4406006;-115.80337;2.3729713
2019-11-02T05:25:56;1;-115.78576;2.3740568;-115.67428;2.3115253
2019-11-02T05:30:56;1;-117.12648;2.5656924;-117.357895;2.5129979
2019-11-02T05:35:56;1;-116.98121;2.436746;-116.97149;2.4638736
2019-11-02T05:40:56;1;-117.28732;2.6099517;-117.30159;2.6983263
2019-11-02T05:45:56;1;-116.9516;2.4668894;-117.02256;2.4671328
2019-11-02T05:50:56;1;-116.925095;2.487463;-116.9372;2.5849807
2019-11-02T05:55:56;1;-93.55814;13.184276;-117.35848;2.4850235
2019-11-02T06:00:56;1;-95.470825;11.336145;-110.541855;5.064525
2019-11-02T06:05:56;1;-94.34494;13.087749;-116.88898;2.489202
2019-11-02T06:10:56;1;-96.2984;12.138563;-117.14566;2.5141003
2019-11-02T06:15:56;1;-97.821884;11.296667;-116.76054;2.5789697
2019-11-02T06:20:56;1;-98.475494;10.943745;-117.328545;2.576324